Regional Weather Roundup
Issued by NWS

Home | Current Version | Previous Version | Graphics & Text | Print | Product List | Glossary Off
Versions: 1 2 3 4 5 6 7 8 9 10 11 12 13 14 15 16 17 18 19 20 21 22 23 24 25 26 27

000
ASUS43 KDMX 240607
RWRIA

WEATHER ROUNDUP FOR IOWA
NATIONAL WEATHER SERVICE DES MOINES IA
100 AM CDT THU APR 24 2014

NOTE: "FAIR" INDICATES FEW OR NO CLOUDS BELOW 12,000 FEET WITH NO
SIGNIFICANT WEATHER AND/OR OBSTRUCTIONS TO VISIBILITY.

* - THESE STATIONS ARE NOT NWS STATIONS...THUS NOT UNDER NWS
QUALITY CONTROL.  THEY ALSO DO NOT REPORT WEATHER SUCH
AS PRECIPITATION OR FOG.

IAZ001>003-012>014-020>022-031>034-043>046-240700-
   NORTHWEST IOWA

CITY           SKY/WX    TMP DP  RH WIND       PRES   REMARKS
CARROLL *      MOCLDY    46  41  81 E14       29.72F
CHEROKEE *     TSTM      47  46  93 SE14G21   29.72F
DENISON *      CLOUDY    48  43  81 E7G15     29.69F
LE MARS *        N/A     52  48  87 SW10G21   29.66R
ORANGE CITY *  PTCLDY    50  45  81 SE8       29.66F
SHELDON *      PTCLDY    46  43  87 SE12      29.67F
SIOUX CITY     LGT RAIN  50  48  93 SE32G43   29.60F
6HR MIN TEMP:  50; 6HR MAX TEMP:  60; 6HR PCP:  0.14;

SPENCER        LGT RAIN  46  41  82 SE22G29   29.71F
6HR MIN TEMP:  44; 6HR MAX TEMP:  49; 6HR PCP:  0.03;

STORM LAKE *   CLOUDY    46  45  93 SE21G26   29.77R FOG
$$

IAZ055>058-069>071-079>083-090>094-240700-
   SOUTHWEST IOWA

CITY           SKY/WX    TMP DP  RH WIND       PRES   REMARKS
ATLANTIC *     CLOUDY    54  41  62 SE8G17    29.68F
AUDUBON *      PTCLDY    50  41  71 E15       29.71F
CLARINDA *     PTCLDY    59  41  51 SE17G28   29.63F
COUNCIL BLFS * CLOUDY    52  48  87 N5        29.65S
CRESTON *      PTCLDY    54  39  58 SE23      29.69F
HARLAN  *      MOCLDY    52  45  76 E8        29.71F
LAMONI         LGT RAIN  55  37  50 SE7       29.75F
6HR MIN TEMP:  55; 6HR MAX TEMP:  57; 6HR PCP: TRACE;

RED OAK *      CLOUDY    57  41  54 SE8       29.66R
SHENANDOAH *   PTCLDY    61  41  48 SE12G21   29.64R
$$

IAZ047>049-059>061-072>074-084-240700-
   CENTRAL IOWA

CITY           SKY/WX    TMP DP  RH WIND       PRES   REMARKS
AMES           LGT RAIN  47  40  76 SE15      29.79F
6HR MIN TEMP:  46; 6HR MAX TEMP:  48; 6HR PCP:  0.16;

ANKENY *       LGT RAIN  48  41  76 E9        29.79F
CHARITON *     CLOUDY    54  37  54 SE15G22   29.79S
DES MOINES     LGT RAIN  52  39  61 SE13      29.78F
6HR MIN TEMP:  49; 6HR MAX TEMP:  52; 6HR PCP:  0.03;

GRINNELL*      CLOUDY    46  39  76 E14       29.84S
KNOXVILLE *    MOCLDY    54  36  50 SE18G25   29.78F
MARSHALLTOWN   CLOUDY    47  40  76 E17       29.83F
6HR MIN TEMP:  45; 6HR MAX TEMP:  47; 6HR PCP:  0.01;

NEWTON *       CLOUDY    48  37  66 SE15      29.82F
PELLA *          N/A     49  38  66 SE14      29.83F
PERRY *        LGT RAIN  48  41  76 E8        29.75S
$$

IAZ004>006-015-016-023>025-035-036-240700-
   NORTH CENTRAL IOWA

CITY           SKY/WX    TMP DP  RH WIND       PRES   REMARKS
ALGONA *       MIX PCPN  45  41  87 SE14G24   29.79S
CLARION *      CLOUDY    45  41  87 SE18G28   29.81S
ESTHERVILLE      N/A     42  41  96 SE18      29.76F
6HR MIN TEMP:  42; 6HR MAX TEMP:  45; 6HR PCP:  0.03;

FORT DODGE *   CLOUDY    45  39  81 SE14G22   29.80S
MASON CITY     LGT RAIN  43  40  89 SE15      29.87R
6HR MIN TEMP:  43; 6HR MAX TEMP:  45; 6HR PCP:  0.04;

FOREST CITY *  LGT RAIN  43  41  93 SE18      29.82F
IOWA FALLS *   LGT RAIN  45  41  87 E15       29.85R
$$

IAZ007>011-017>019-026>030-037>042-050>054-066-240700-
   NORTHEAST IOWA

CITY           SKY/WX    TMP DP  RH WIND       PRES   REMARKS
CEDAR RAPIDS   CLOUDY    47  39  74 SE15      29.89S
6HR MIN TEMP:  45; 6HR MAX TEMP:  47; 6HR PCP:  0.03;

CHARLES CITY * LGT RAIN  45  39  81 SE21G28   29.88F
CLINTON *      CLOUDY    45  36  70 E18       29.99S
DECORAH *      CLOUDY    43  37  81 E13G22    29.93F
DUBUQUE        CLOUDY    44  34  67 E14       29.97R
6HR MIN TEMP:  44; 6HR MAX TEMP:  47; 6HR PCP:  0.03;

MONTICELLO *   MOCLDY    46  37  71 E13       29.94S
OELWEIN *      DRIZZLE  N/A N/A N/A SE17G24   29.93S
WATERLOO       LGT RAIN  46  40  79 SE20      29.90R
6HR MIN TEMP:  44; 6HR MAX TEMP:  47; 6HR PCP:  0.07;

$$

IAZ064-065-067-068-078-240700-
   EAST CENTRAL IOWA

CITY           SKY/WX    TMP DP  RH WIND       PRES   REMARKS
DAVENPORT      CLOUDY    47  37  68 E15       29.95R
6HR MIN TEMP:  47; 6HR MAX TEMP:  49; 6HR PCP:  0.02;

IOWA CITY      MOCLDY    48  40  73 E8        29.93R
6HR MIN TEMP:  47; 6HR MAX TEMP:  48; 6HR PCP:  0.04;

MT. PLEASANT *   N/A     51  32  47 SE9       29.89S
MUSCATINE *    PTCLDY    52  37  58 SE13      29.92R
QUAD CITIES    MOCLDY    47  39  74 E14       29.95R
6HR MIN TEMP:  47; 6HR MAX TEMP:  49; 6HR PCP:  0.01;

$$

IAZ062-063-075>077-085>089-095>099-240700-
   SOUTHEAST IOWA

CITY           SKY/WX    TMP DP  RH WIND       PRES   REMARKS
BURLINGTON       N/A     53  32  44 SE10      29.90R
6HR MIN TEMP:  52; 6HR MAX TEMP:  54;

FAIRFIELD *    CLOUDY    50  34  53 SE13      29.86S
FORT MADISON * CLEAR     54  32  43 SE16G23   29.88F
KEOKUK *       CLEAR     54  32  43 SE16G24   29.86S
OSKALOOSA *      N/A     48  37  65 SE13      29.86S
CENTERVILLE *  CLEAR     52  36  54 SE15G21   29.83R
OTTUMWA          N/A     49  35  58 E10       29.85R
6HR MIN TEMP:  49; 6HR MAX TEMP:  51;

WASHINGTON *   PTCLDY    46  39  76 E12       29.90R
$$

ABBREVIATIONS USED IN REMARKS
   TC - TEMPERATURES IN CELSIUS
  WCI - WIND CHILL INDEX
   HX - HEAT INDEX
  VSB - VISIBILITY
$$




USA.gov is the U.S. government's official web portal to all federal, state and local government web resources and services.